Other Public Products
Issued by NWS Grand Forks, ND

Home | Current Version | Previous Version | Text Only | Print | Product List | Glossary Off
Versions: 1 2 3 4 5 6 7 8 9 10 11 12 13 14 15 16 17 18 19 20 21 22 23 24 25 26 27 28 29 30 31 32 33 34 35 36 37 38 39 40 41 42 43 44 45 46 47 48 49 50

000
FPUS83 KFGF 281831
OPUFGF
PRAIRIE TO PINES WEATHER ROUNDUP
NATIONAL WEATHER SERVICE EASTERN NORTH DAKOTA/GRAND FORKS ND
100 PM CDT THU JUL 28 2016

 **SATELLITE DATA USED TO AUGMENT SKY COVER AT AUTOMATED STATIONS**
 *****  WEATHER ACROSS EASTERN NORTH DAKOTA  *****

CITY           SKY/WX    TMP DP  RH WIND       PRES   REMARKS
GRAND FORKS    MOSUNNY   74  57  55 N10       30.11F
6HR MIN TEMP:  58; 6HR MAX TEMP:  74;

GRAND FORKS AF NOT AVBL
GRAND CITY NWS   N/A     73 N/A N/A N6          N/A
BUXTON           N/A     77  61  57 NE6         N/A
DEVILS LAKE    MOSUNNY   70  58  65 VRB5      30.16F
6HR MIN TEMP:  57; 6HR MAX TEMP:  70;

FARGO          SUNNY     77  61  57 N5        30.08F
6HR MIN TEMP:  63; 6HR MAX TEMP:  77; 6HR PCP: TRACE;

WAHPETON ARPT  PTCLDY    77  55  47 CALM      30.09S
$$

 *****  WEATHER ACROSS CENTRAL AND WESTERN NORTH DAKOTA  *****

CITY           SKY/WX    TMP DP  RH WIND       PRES   REMARKS
JAMESTOWN      PTSUNNY   73  62  68 E6        30.12S
6HR MIN TEMP:  57; 6HR MAX TEMP:  72;

BISMARCK       CLOUDY    71  56  58 E7        30.15S
6HR MIN TEMP:  63; 6HR MAX TEMP:  72;

MINOT          PTSUNNY   74  52  46 N9        30.16F
6HR MIN TEMP:  62; 6HR MAX TEMP:  76;

MINOT AFB      NOT AVBL
GARRISON         N/A     67  56  67 NE5       30.17R
6HR MIN TEMP:  61; 6HR MAX TEMP:  68;

WILLISTON      MOSUNNY   76  53  44 NE10      30.17S
6HR MIN TEMP:  60; 6HR MAX TEMP:  76;

DICKINSON      CLOUDY    62  59  90 E12       30.16S
6HR MIN TEMP:  58; 6HR MAX TEMP:  63; 6HR PCP:  0.31;

HETTINGER      PTSUNNY   70  59  68 SE9       30.16S
6HR MIN TEMP:  59; 6HR MAX TEMP:  72;

$$

 *****  OTHER OBSERVATIONS NORTHEAST NORTH DAKOTA  *****

CITY           SKY/WX    TMP DP  RH WIND       PRES   REMARKS
WALHALLA       NOT AVBL
LANGDON        FAIR      72  55  56 VRB3      30.18S
CAVALIER       FAIR      70  54  56 N7        30.15S
GRAFTON        FAIR      72  55  56 N9G16     30.15F
CANDO          FAIR      72  55  56 N7        30.18F
FORT TOTTEN      N/A     70  57  63 NE3       29.95S
ROLLA          NOT AVBL
RUGBY          NOT AVBL
 ***** THE ABOVE OBSERVATIONS ARE NON NWS ARE NOT QUALITY
        CONTROLLED AND MAY MIS-REPORT RAIN FOR SNOW...
$$

 *****  OTHER OBSERVATIONS SOUTHEAST NORTH DAKOTA *****

CITY           SKY/WX    TMP DP  RH WIND       PRES   REMARKS
COOPERSTOWN    NOT AVBL
VALLEY CITY    MOCLDY    73  66  78 E10       30.13S
OAKES            N/A    N/A N/A N/A MISG        N/A
GWINNER        FAIR      75  63  64 NE6       30.11R
SHEYENNE NWR     N/A     78  58  50 SE6       29.95S
BUFFALO          N/A    N/A N/A N/A CALM        N/A
WYNDMERE         N/A     75  64  69 CALM        N/A
 ***** THE ABOVE OBSERVATIONS ARE NON NWS ARE NOT QUALITY
       CONTROLLED AND MAY MIS-REPORT RAIN FOR SNOW...
$$

  *****  WEATHER ACROSS NORTHERN MINNESOTA  *****

CITY           SKY/WX    TMP DP  RH WIND       PRES   REMARKS
FLAG ISLAND    CLOUDY    68  52  56 N5        30.14R
WARROAD        SUNNY     70  59  68 NE8       30.15R
ROSEAU         MOSUNNY   70  59  68 NE7       30.14S
HALLOCK        SUNNY     70  54  56 N7        30.14S
THF RVR FALLS  MOSUNNY   71  58  63 VRB5      30.14S
6HR MIN TEMP:  58; 6HR MAX TEMP:  71;

HALSTAD          N/A     79  59  49 NE7         N/A
FOSSTON        SUNNY     77  61  57 NE3       30.12S
BAUDETTE       MOSUNNY   73  57  57 N8        30.12F
6HR MIN TEMP:  56; 6HR MAX TEMP:  75;

WASKISH        SUNNY     75  57  53 W7        30.12S
CROOKSTON      SUNNY     73  57  56 NE9       30.12S
$$
  *****  WEATHER ACROSS CENTRAL AND WEST MINNESOTA  *****

CITY           SKY/WX    TMP DP  RH WIND       PRES   REMARKS
BEMIDJI        MOSUNNY   75  54  46 CALM      30.11F
PARK RAPIDS    CLOUDY    78  55  44 N8        30.10S
6HR MIN TEMP:  61; 6HR MAX TEMP:  78;

WADENA         MOSUNNY   73  59  60 NE3       30.09F
DETROIT LAKES  MOSUNNY   70  63  78 W3        30.12S
MOORHEAD       MOSUNNY   73  63  68 N8          N/A
FERGUS FALLS   PTSUNNY   73  59  60 CALM      30.09F
ELBOW LAKE     FAIR      74  57  55 NE9       30.10S
MORRIS MN      PTSUNNY   77  57  50 E7        30.08S
STAPLES        PTSUNNY   72  55  56 SE3       30.10S
WHEATON        CLOUDY    75  64  69 E6        30.10R
$$
  *****  WEATHER ELSEWHERE ACROSS MINNESOTA  *****

CITY           SKY/WX    TMP DP  RH WIND       PRES   REMARKS
DULUTH         MOSUNNY   72  53  51 E12G20    30.11S
6HR MIN TEMP:  59; 6HR MAX TEMP:  73;

INTRNTL FALLS  SUNNY     74  55  51 N7        30.12S
6HR MIN TEMP:  60; 6HR MAX TEMP:  74;

ELY            SUNNY     72  52  49 NE6       30.12S
CLOQUET        CLOUDY    70  52  52 E7        30.11S
BRAINERD       CLOUDY    72  55  55 NE6       30.11S
6HR MIN TEMP:  61; 6HR MAX TEMP:  72;

HIBBING        MOSUNNY   73  53  49 NE6       30.10F
6HR MIN TEMP:  54; 6HR MAX TEMP:  74;

ALEXANDRIA     CLOUDY    74  57  55 E10       30.11S
6HR MIN TEMP:  63; 6HR MAX TEMP:  74;

SAINT CLOUD    PTSUNNY   71  57  61 E8        30.07F
6HR MIN TEMP:  59; 6HR MAX TEMP:  73;

MINNEAPOLIS    CLOUDY    72  62  71 N9        30.03S
6HR MIN TEMP:  65; 6HR MAX TEMP:  72;

$$

  *****  WEATHER ACROSS SOUTH DAKOTA  *****

CITY           SKY/WX    TMP DP  RH WIND       PRES   REMARKS
SIOUX FALLS    PTSUNNY   76  63  64 VRB5      30.06F
6HR MIN TEMP:  63; 6HR MAX TEMP:  76;

BROOKINGS      MOSUNNY   71  61  70 N6        30.08S
WATERTOWN      CLOUDY    76  57  51 E8        30.09R
6HR MIN TEMP:  61; 6HR MAX TEMP:  77;

HURON          SUNNY     77  61  57 N9        30.07F
6HR MIN TEMP:  60; 6HR MAX TEMP:  77;

SISSETON         N/A     76  61  59 NE5       30.08S
ABERDEEN       MOSUNNY   73  62  68 CALM      30.11R
6HR MIN TEMP:  61; 6HR MAX TEMP:  75;

MITCHELL       SUNNY     79  59  50 N10       30.07F
PIERRE         MOSUNNY   80  57  45 SE13      30.08F
6HR MIN TEMP:  62; 6HR MAX TEMP:  80;

MOBRIDGE       PTSUNNY   74  54  49 E9        30.11S
RAPID CITY     CLOUDY    70  58  65 N6        30.12F
6HR MIN TEMP:  59; 6HR MAX TEMP:  70; 6HR PCP: TRACE;

$$

  *****  SOME WEATHER IN NEARBY STATES *****

CITY           SKY/WX    TMP DP  RH WIND       PRES   REMARKS
GLASGOW MT     PTSUNNY   74  58  57 VRB3      30.17S
6HR MIN TEMP:  56; 6HR MAX TEMP:  74;

GREAT FALLS MT SUNNY     76  49  38 NE6       30.19S
6HR MIN TEMP:  54; 6HR MAX TEMP:  76;

CHEYENNE WY    PTSUNNY   66  55  67 NE20G25   30.29S
6HR MIN TEMP:  57; 6HR MAX TEMP:  70; 6HR PCP: TRACE;

SCOTTSBLUFF NE PTSUNNY   67  50  54 SE15      30.18F
6HR MIN TEMP:  59; 6HR MAX TEMP:  67; 6HR PCP:  0.33;

OMAHA NE       MOSUNNY   83  65  54 N9        30.01F
6HR MIN TEMP:  70; 6HR MAX TEMP:  83;

DES MOINES IA  MOSUNNY   77  65  66 NE10      29.99S
6HR MIN TEMP:  71; 6HR MAX TEMP:  78;

DAVENPORT IA   MOSUNNY   80  71  74 NW13G21   29.92R
6HR MIN TEMP:  67; 6HR MAX TEMP:  83;

CHICAGO IL     TSTM      74  72  93 W5        29.89S FOG
6HR MIN TEMP:  74; 6HR MAX TEMP:  84; 6HR PCP:  0.32;

EAU CLAIRE WI  LGT RAIN  66  65  96 NE8       30.01S FOG
6HR MIN TEMP:  66; 6HR MAX TEMP:  68; 6HR PCP:  0.01;

LA CROSSE WI   LGT RAIN  68  65  90 N9        29.95R FOG
6HR MIN TEMP:  68; 6HR MAX TEMP:  70; 6HR PCP:  0.05;

$$

  *****  SOME NATIONAL WEATHER *****

CITY           SKY/WX    TMP DP  RH WIND       PRES   REMARKS
LA GUARDIA NY  MOSUNNY   91  63  39 SE10      29.85F HX  92
6HR MIN TEMP:  79; 6HR MAX TEMP:  93;

RALEIGH NC     MOSUNNY   95  74  50 SW10      29.90F HX 105        C1F1C2F2C3F3C4F4C5F5C6F6C7F7C8F8C9F9CaFaCbFbCcFcCdFdCe!



USA.gov is the U.S. government's official web portal to all federal, state and local government web resources and services.